Overview Statistics Trail Chart Weather Telemetry Raw packets
 

This is the latest recevied weather packets stored in our database for station/object WW6Q. If no packets are shown the sender has not sent any weather packets the latest 10 day(s).

<< 97 98 99 100 101 102 103 >>
Time Temp. Humidity Pressure Rain* Wind** Luminosity Snow
1787900270 15.56° C 94% 1017.7 hPa 0 mm - 0 W/m² -
1787899965 15.56° C 97% 1017.7 hPa 0 mm - 0 W/m² -
1787899662 15.56° C 99% 1017.7 hPa 0 mm - 0 W/m² -
1787899357 15.56° C 99% 1017.7 hPa 0 mm - 0 W/m² -
1787899052 15.56° C 98% 1017.7 hPa 0 mm - 0 W/m² -
1787898747 15.56° C 98% 1017.7 hPa 0 mm - 0 W/m² -
1787898446 15.56° C 98% 1017.9 hPa 0 mm - 0 W/m² -
1787898145 15.56° C 98% 1017.9 hPa 0 mm - 0 W/m² -
1787897841 15.56° C 98% 1017.7 hPa 0 mm - 0 W/m² -
1787897535 15° C 98% 1017.6 hPa 0 mm - 0 W/m² -
1787897234 15.56° C 98% 1017.7 hPa 0 mm - 0 W/m² -
1787896929 15.56° C 98% 1017.3 hPa 0 mm - 0 W/m² -
1787896629 15.56° C 98% 1017.7 hPa 0 mm - 0 W/m² -
1787896325 15.56° C 97% 1017.7 hPa 0 mm - 0 W/m² -
1787896021 15.56° C 97% 1017.6 hPa 0 mm - 0 W/m² -
1787895720 15.56° C 96% 1017.7 hPa 0 mm - 0 W/m² -
1787895415 15.56° C 96% 1017.5 hPa 0 mm - 0 W/m² -
1787895111 16.11° C 95% 1017.3 hPa 0 mm - 0 W/m² -
1787894806 16.11° C 95% 1017.5 hPa 0 mm - 0 W/m² -
1787894502 16.11° C 95% 1017.3 hPa 0 mm - 0 W/m² -
1787894201 16.11° C 95% 1017.2 hPa 0 mm - 0 W/m² -
1787893897 16.11° C 94% 1017.2 hPa 0 mm - 0 W/m² -
1787893594 16.67° C 93% 1017.1 hPa 0 mm - 0 W/m² -
1787893289 16.67° C 92% 1017.1 hPa 0 mm - 0 W/m² -
1787892985 17.22° C 92% 1016.9 hPa 0 mm - 0 W/m² -

* Rain latest hour (hover to see other rain measurements)
** Current wind speed in m/s (hover to see current wind gust speed)